Hourly Data Report for April 13, 2016

All times are specified in Local Standard Time (LST). Add 1 hour to adjust for Daylight Saving Time where and when it is observed.

EMERSON AUTO
MANITOBA

49°00'00.000" N
97°14'15.000" W
242.00 m
5020881
71560
WEX

Download Data

Hourly Data (April 2016)
Hourly Data Report for April 13, 2016
Temp Definition
°C
Dew Point Temp Definition
°C
Rel Hum Definition
%
Wind Dir Definition
10's deg

Wind Spd Definition
km/h
Visibility Definition
km
Stn Press Definition
kPa
Hmdx Definition


Wind Chill Definition


Weather Definition


TIME
00:00 -1.2 -7.8 61 16 8   99.04   -4 LegendNANA
01:00 0.8 -7.2 55 17 15   99.03     LegendNANA
02:00 0.4 -6.0 63 18 17   99.02     LegendNANA
03:00 -0.7 -5.6 69 16 13   98.99   -5 LegendNANA
04:00 -2.9 -7.0 73 14 11   99.01   -7 LegendNANA
05:00 -3.1 -6.5 77 14 9   99.01   -7 LegendNANA
06:00 -3.7 -5.9 85 19 7   99.09   -7 LegendNANA
07:00 -0.8 -3.8 81 15 9   99.13   -4 LegendNANA
08:00 2.5 -1.7 74 18 12   99.12     LegendNANA
09:00 4.6 -1.7 64 18 15   99.08     LegendNANA
10:00 7.6 -0.7 55 17 14   99.04     LegendNANA
11:00 10.2 -1.0 46 17 16   99.01     LegendNANA
12:00 12.7 -1.2 38 16 20   98.95     LegendNANA
13:00 14.6 -3.3 29 15 22   98.90     LegendNANA
14:00 16.3 -3.4 26 15 22   98.82     LegendNANA
15:00 17.0 -3.2 25 16 18   98.73     LegendNANA
16:00 17.0 -2.5 26 14 18   98.67     LegendNANA
17:00 16.7 -2.1 28 15 19   98.62     LegendNANA
18:00 16.0 -0.9 32 14 19   98.55     LegendNANA
19:00 13.7 -0.1 39 13 14   98.50     LegendNANA
20:00 10.7 0.0 47 12 18   98.47     LegendNANA
21:00 8.5 0.1 56 12 18   98.43     LegendNANA
22:00 8.3 -0.1 55 13 14   98.40     LegendNANA
23:00 8.9 0.5 56 13 13   98.43     LegendNANA

Notes on Data Quality.

Legend

  • E = Estimated
  • M = Missing
  • NA = Not Available
  • ‡ = Partner data that is not subject to review by the National Climate Archives
Date modified: